星链-34271 (STARLINK-34271)

导读

STARLINK-34271是美国太空探索技术公司SpaceX旗下星链Starlink互联网星座的一颗卫星,于2025年6月13日发射入轨,归属美国所有。星链项目旨在搭建全球覆盖的低轨卫星互联网,该卫星承担卫星通信服务任务,补充完善星链星座的网络覆盖与服务能力,为全球用户提供高速低延迟的互联网接入。

Basic Information
目录编号:
64384
目录名称:
STARLINK-34271
国际标识:
2025-127Q
轨道中心:
EARTH
卫星名称:
星链-34271
卫星全名:
星链-34271 (STARLINK-34271)
卫星状态:
在轨 (已飞行448 天)
发射日期:
2025-06-13 UTC
国别 :
美国 (US)
星等 :
--
Orbit Information
数据来源 国际轨道数据
星历时间: 2026-09-04T09:24:47+0800
12小时前
查看轨道信息
半长轴: 6861.159km
偏心率: 0.0000829
轨道倾角: 43.001°
近地点辐角 267.843°
升交点赤经 252.676°
平近点角 92.233°
近地点: 482.453km
远地点: 483.591km
周期: 94.266分钟
每日圈数: 15.275892
Detailed Information
固有亮度:
5
最大亮度:
2.5
卫星平台:
Starlink V1.0
覆盖范围:
全球
运营商:
太空探索技术公司
运营商所在国:
美国
制造商(研发单位):
太空探索技术公司
制造商所在国:
美国
使用方式:
暂无
Satellite Introduction
Starlink 计划是 SpaceX 推出的全球卫星互联网项目,通过发射低轨道卫星,为全球尤其是偏远地区提供高速、低延迟的互联网服务。自 2019 年起,Starlink 已部署数千颗卫星,旨在缩小全球数字鸿沟,推动互联网普及。该项目还为军事、航空等行业提供通信支持,带来广泛经济效益。
2D Orbit Map
3D Orbit Map
Orbit Altitude Analysis Chart
Orbit Inclination Analysis Chart
Orbit Comprehensive Analysis Chart
View Comprehensive Chart
Conjunction Data List
Event ID Objects TCA Miss Dist (km) Collision Risk Probability Collision Risk Index (CRI) Action
CDM_260905-192906-438406-742721
2026-09-05T
19:29:13+0000
0.438 km
远距离
1.491609E-4 高风险 0.78
CDM_260904-134206-204106-438422
2026-09-04T
13:42:17+0000
0.507 km
远距离
1.208802E-4 高风险 0.77
CDM_260905-224206-438406-654121
2026-09-05T
22:42:12+0000
0.759 km
远距离
4.355856E-5 中风险 0.68
CDM_260905-210306-438406-742721
2026-09-05T
21:03:22+0000
0.744 km
远距离
3.437001E-5 中风险 0.66
CDM_260905-030206-204106-438421
2026-09-05T
03:02:33+0000
0.817 km
远距离
2.989735E-5 中风险 0.65
CDM_260905-210806-438406-654121
2026-09-05T
21:08:03+0000
0.858 km
远距离
2.914782E-5 中风险 0.64
CDM_260906-133106-438406-742721
2026-09-06T
13:31:58+0000
0.944 km
远距离
1.559262E-5 中风险 0.59
CDM_260905-012806-204106-438421
2026-09-05T
01:28:24+0000
1.224 km
极远距离
7.517015E-6 低风险 0.53
CDM_260905-175506-438406-742721
2026-09-05T
17:55:03+0000
1.259 km
极远距离
5.791882E-6 低风险 0.5
CDM_260904-151606-204106-438421
2026-09-04T
15:16:26+0000
1.489 km
极远距离
3.92203E-6 低风险 0.47